Falls City, NE

9:59 PM CST on February 13, 2016 (GMT -0600)
Brenner

Weather History for KFNB - April, 2014

Change the Weather History Date:

Monday, April 21, 2014

  Actual Average Record
Temperature  
Mean Temperature 65 °F -  
Max Temperature 75 °F 67 °F 89 °F (1956)
Min Temperature 54 °F 42 °F 19 °F (1966)
Growing Degree Days 15 (Base 50)    
Moisture  
Dew Point 48 °F    
Average Humidity 59    
Maximum Humidity 90    
Minimum Humidity 20    
Precipitation  
Precipitation 0.04 in - - ()
Sea Level Pressure  
Sea Level Pressure 29.97 in    
Wind  
Wind Speed 9 mph (NW)    
Max Wind Speed 23 mph    
Max Gust Speed 31 mph    
Visibility 10 miles    
Events Rain    
Averages and records for this station are not official NWS values.
T = Trace of Precipitation, MM = Missing Value Source: NWS Daily Summary

Daily Weather History Graph

Daily Weather History Graph

Search for Another Location

Airport or City:

Trip Planner

Search our weather history database for the weather conditions in past years. The results will help you decide how hot, cold, wet, or windy it might be!

Date:

Astronomy

Apr. 21, 2014 Rise Set
Actual Time 6:35 AM CDT 8:07 PM CDT
Civil Twilight 6:07 AM CDT 8:35 PM CDT
Nautical Twilight 5:32 AM CDT 9:10 PM CDT
Astronomical Twilight 4:56 AM CDT 9:46 PM CDT
Moon 1:37 AM CDT (4/21) 12:03 PM CDT (4/21)
Length of Visible Light 14h 28m
Length of Day
13h 31m
Waning Gibbous, 57% of the Moon is Illuminated
Apr 21
Waning Gibbous
Apr 22
Last Quarter
Apr 29
New
May 6
First Quarter
May 14
Full

Hourly Weather History & Observations

Time (CDT) Temp. Dew Point Humidity Pressure Visibility Wind Dir Wind Speed Gust Speed Precip Events Conditions
12:53 AM 64.9 °F 57.0 °F 75% 29.95 in 10.0 mi South 9.2 mph - N/A   Clear
1:53 AM 64.9 °F 57.0 °F 75% 29.94 in 10.0 mi South 9.2 mph - N/A   Overcast
2:53 AM 64.0 °F 57.0 °F 78% 29.93 in 10.0 mi SSW 11.5 mph - 0.00 in Rain Light Rain
3:53 AM 63.0 °F 57.0 °F 81% 29.92 in 10.0 mi SW 10.4 mph - 0.00 in   Clear
4:53 AM 62.1 °F 55.9 °F 80% 29.92 in 10.0 mi SSW 6.9 mph - N/A   Clear
5:53 AM 57.9 °F 55.0 °F 90% 29.93 in 9.0 mi Calm Calm - 0.00 in   Scattered Clouds
6:53 AM 60.1 °F 55.9 °F 86% 29.94 in 8.0 mi South 4.6 mph - N/A   Overcast
7:53 AM 61.0 °F 57.0 °F 87% 29.96 in 8.0 mi WSW 6.9 mph - N/A   Overcast
8:53 AM 61.0 °F 57.0 °F 87% 29.96 in 3.0 mi West 6.9 mph - 0.02 in Rain Rain
9:53 AM 62.1 °F 57.9 °F 86% 29.95 in 10.0 mi West 10.4 mph - 0.02 in Rain Light Rain
10:53 AM 64.0 °F 57.9 °F 80% 29.96 in 10.0 mi WNW 8.1 mph - 0.00 in   Overcast
11:53 AM 64.9 °F 57.0 °F 75% 29.99 in 10.0 mi NNW 8.1 mph - 0.00 in Rain Light Rain
12:53 PM 70.0 °F 57.9 °F 65% 29.97 in 10.0 mi NNW 8.1 mph - 0.00 in   Clear
1:53 PM 75.0 °F 57.0 °F 53% 29.96 in 10.0 mi North 11.5 mph - N/A   Clear
2:53 PM 75.0 °F 53.1 °F 46% 29.96 in 10.0 mi North 15.0 mph 24.2 mph N/A   Mostly Cloudy
3:53 PM 73.9 °F 51.1 °F 45% 29.96 in 10.0 mi North 23.0 mph 31.1 mph N/A   Scattered Clouds
4:53 PM 75.0 °F 43.0 °F 32% 29.96 in 10.0 mi NNE 20.7 mph 28.8 mph N/A   Clear
5:53 PM 73.9 °F 32.0 °F 21% 29.97 in 10.0 mi North 18.4 mph 26.5 mph N/A   Clear
6:53 PM 73.0 °F 30.0 °F 20% 29.97 in 10.0 mi North 13.8 mph 20.7 mph N/A   Clear
7:53 PM 69.1 °F 28.0 °F 22% 29.99 in 10.0 mi North 8.1 mph - N/A   Clear
8:53 PM 63.0 °F 28.9 °F 28% 30.02 in 10.0 mi NNW 5.8 mph - N/A   Clear
9:53 PM 57.9 °F 28.9 °F 33% 30.05 in 10.0 mi NNW 6.9 mph - N/A   Clear
10:53 PM 55.9 °F 30.0 °F 37% 30.07 in 10.0 mi NNW 5.8 mph - N/A   Clear
11:53 PM 54.0 °F 30.0 °F 40% 30.09 in 10.0 mi NW 4.6 mph - N/A   Clear